User: anonymous   Login
Location: *
(17.3280°S, 114.7300°W)
Time: 11:27:53
(UTC+00:00)
Language:

Cosmos 1400 Rocket - Orbit

View from above orbital plane
View from above orbital plane
View from above satellite
View from above satellite

Ground track
Ground track

The orbit data is extracted from the following two-line orbital elements,

1 13403U 82079B   20296.93652401 -.00000105 +00000-0 -84293-5 0  9995
2 13403 081.1673 306.8966 0033514 200.4042 159.5846 15.07231348080814
Epoch (UTC): 22 October 2020 22:28:35
Eccentricity: 0.0033514
inclination: 81.1673°
perigee height: 521 km
apogee height: 568 km
right ascension of ascending node: 306.8966°
argument of perigee: 200.4042°
revolutions per day: 15.07231348
mean anomaly at epoch: 159.5846°
orbit number at epoch: 8081

The dashed part of the orbit path shows where the satellite is in the earth's shadow,  

DLR